GFSMA_prec_precacc6_102.txt.gz
Total_Precipitation_Accumulation
0.05 0.08 0.11 0.13 0.16 0.16 0.11 0.07 0.02 0.12 0.22 0.31 0.28 0.20 0.03 0.02 0.01 0.00 0.00 0.00 0.00 0.00 0.00 0.01 0.01 0.01 0.01 0.00 0.00 0.00 0.00 0.00 0.00 0.00 0.00 0.00 0.00 0.00 0.00 0.00 0.00 0.00 0.00
0.06 0.06 0.11 0.12 0.14 0.18 0.10 0.01 0.02 0.13 0.21 0.24 0.26 0.14 0.01 0.02 0.01 0.00 0.00 0.00 0.00 0.00 0.01 0.01 0.01 0.01 0.01 0.00 0.00 0.00 0.00 0.00 0.00 0.00 0.00 0.00 0.00 0.00 0.00 0.00 0.00 0.00 0.00
0.04 0.06 0.08 0.11 0.11 0.14 0.06 0.04 0.13 0.22 0.25 0.25 0.20 0.12 0.01 0.00 0.00 0.00 0.00 0.00 0.00 0.00 0.01 0.02 0.02 0.02 0.01 0.00 0.00 0.00 0.00 0.00 0.00 0.00 0.00 0.00 0.00 0.00 0.00 0.00 0.00 0.00 0.00
0.04 0.10 0.09 0.14 0.16 0.12 0.07 0.03 0.06 0.18 0.29 0.25 0.19 0.08 0.01 0.00 0.00 0.00 0.00 0.00 0.00 0.00 0.01 0.01 0.01 0.01 0.01 0.01 0.00 0.00 0.00 0.00 0.00 0.00 0.00 0.00 0.00 0.00 0.00 0.00 0.00 0.00 0.00
0.02 0.11 0.12 0.15 0.16 0.13 0.06 0.02 0.03 0.08 0.21 0.25 0.17 0.07 0.00 0.00 0.00 0.00 0.00 0.00 0.00 0.00 0.00 0.00 0.01 0.01 0.01 0.01 0.00 0.00 0.00 0.00 0.00 0.00 0.00 0.00 0.00 0.00 0.00 0.00 0.00 0.00 0.00
0.01 0.05 0.11 0.20 0.11 0.09 0.05 0.02 0.03 0.10 0.14 0.15 0.12 0.05 0.00 0.00 0.00 0.00 0.00 0.00 0.00 0.00 0.00 0.00 0.00 0.00 0.00 0.00 0.00 0.00 0.00 0.00 0.00 0.00 0.00 0.00 0.00 0.00 0.00 0.00 0.00 0.00 0.00
0.05 0.11 0.20 0.23 0.21 0.12 0.06 0.06 0.03 0.06 0.19 0.18 0.12 0.04 0.02 0.01 0.00 0.00 0.00 0.00 0.00 0.00 0.00 0.00 0.00 0.00 0.00 0.00 0.00 0.00 0.00 0.00 0.00 0.00 0.00 0.00 0.00 0.00 0.00 0.00 0.00 0.00 0.00
0.03 0.10 0.29 0.30 0.24 0.23 0.23 0.17 0.05 0.05 0.15 0.18 0.08 0.01 0.03 0.03 0.01 0.00 0.00 0.00 0.00 0.00 0.00 0.00 0.00 0.00 0.00 0.00 0.00 0.00 0.00 0.00 0.00 0.00 0.00 0.00 0.00 0.00 0.00 0.00 0.00 0.00 0.00
0.02 0.05 0.18 0.36 0.30 0.31 0.41 0.31 0.09 0.04 0.06 0.16 0.06 0.00 0.01 0.01 0.01 0.01 0.00 0.00 0.00 0.00 0.00 0.00 0.00 0.00 0.00 0.00 0.00 0.00 0.00 0.00 0.00 0.00 0.00 0.00 0.00 0.00 0.00 0.00 0.00 0.00 0.00
0.01 0.01 0.04 0.24 0.25 0.30 0.36 0.31 0.15 0.08 0.06 0.07 0.04 0.01 0.00 0.00 0.00 0.01 0.01 0.00 0.00 0.00 0.00 0.00 0.00 0.00 0.00 0.00 0.00 0.00 0.00 0.00 0.00 0.00 0.00 0.00 0.00 0.00 0.00 0.00 0.00 0.00 0.00
0.00 0.00 0.03 0.20 0.28 0.34 0.30 0.21 0.17 0.11 0.08 0.05 0.00 0.01 0.01 0.01 0.01 0.00 0.00 0.00 0.00 0.00 0.00 0.00 0.00 0.00 0.00 0.00 0.00 0.00 0.00 0.00 0.00 0.00 0.00 0.00 0.00 0.00 0.00 0.00 0.00 0.00 0.00
0.00 0.01 0.03 0.16 0.28 0.33 0.35 0.20 0.14 0.10 0.08 0.09 0.04 0.03 0.01 0.02 0.02 0.02 0.01 0.02 0.01 0.00 0.00 0.00 0.00 0.00 0.00 0.00 0.00 0.00 0.00 0.00 0.00 0.00 0.00 0.00 0.00 0.00 0.00 0.00 0.00 0.00 0.00
0.00 0.00 0.01 0.09 0.18 0.31 0.32 0.27 0.19 0.12 0.13 0.11 0.07 0.04 0.03 0.03 0.01 0.01 0.00 0.00 0.01 0.00 0.00 0.00 0.00 0.00 0.00 0.00 0.00 0.00 0.00 0.00 0.00 0.00 0.00 0.00 0.00 0.00 0.00 0.00 0.00 0.00 0.00
0.00 0.00 0.01 0.03 0.15 0.28 0.29 0.27 0.26 0.16 0.14 0.13 0.07 0.04 0.03 0.02 0.01 0.00 0.00 0.00 0.00 0.00 0.01 0.00 0.00 0.00 0.00 0.00 0.00 0.00 0.00 0.00 0.00 0.00 0.00 0.00 0.00 0.00 0.00 0.00 0.00 0.00 0.00
0.00 0.00 0.00 0.02 0.08 0.09 0.19 0.22 0.24 0.23 0.19 0.15 0.09 0.05 0.03 0.03 0.02 0.02 0.02 0.01 0.01 0.01 0.00 0.00 0.00 0.00 0.00 0.00 0.00 0.00 0.00 0.00 0.00 0.00 0.00 0.00 0.00 0.00 0.00 0.00 0.00 0.00 0.00
0.00 0.00 0.00 0.00 0.02 0.05 0.09 0.15 0.11 0.09 0.11 0.08 0.08 0.05 0.02 0.01 0.01 0.01 0.03 0.04 0.05 0.04 0.02 0.00 0.00 0.00 0.01 0.02 0.02 0.01 0.00 0.00 0.00 0.00 0.00 0.00 0.00 0.00 0.00 0.00 0.00 0.00 0.00
0.00 0.00 0.00 0.00 0.00 0.01 0.04 0.11 0.08 0.04 0.02 0.02 0.02 0.01 0.00 0.00 0.01 0.00 0.00 0.01 0.01 0.02 0.01 0.00 0.00 0.00 0.01 0.01 0.00 0.00 0.00 0.00 0.00 0.00 0.00 0.00 0.00 0.00 0.00 0.00 0.00 0.00 0.00
0.01 0.01 0.00 0.00 0.00 0.01 0.01 0.03 0.06 0.06 0.07 0.04 0.02 0.01 0.00 0.00 0.00 0.00 0.01 0.01 0.00 0.00 0.00 0.00 0.00 0.00 0.00 0.00 0.00 0.00 0.00 0.00 0.00 0.00 0.00 0.00 0.00 0.00 0.00 0.00 0.00 0.00 0.00
0.00 0.01 0.02 0.01 0.00 0.00 0.01 0.02 0.01 0.02 0.02 0.01 0.02 0.02 0.01 0.00 0.00 0.00 0.00 0.00 0.00 0.00 0.00 0.00 0.00 0.01 0.00 0.00 0.01 0.00 0.00 0.00 0.00 0.00 0.00 0.00 0.00 0.00 0.00 0.00 0.00 0.00 0.00
0.01 0.01 0.03 0.02 0.01 0.01 0.00 0.02 0.02 0.01 0.01 0.00 0.00 0.00 0.00 0.00 0.00 0.00 0.00 0.00 0.01 0.02 0.03 0.03 0.01 0.01 0.02 0.01 0.03 0.01 0.01 0.01 0.01 0.01 0.01 0.01 0.01 0.01 0.00 0.00 0.00 0.00 0.00
0.02 0.02 0.03 0.05 0.04 0.03 0.02 0.01 0.00 0.01 0.01 0.00 0.00 0.00 0.00 0.00 0.00 0.00 0.01 0.03 0.07 0.07 0.06 0.07 0.06 0.04 0.03 0.04 0.05 0.06 0.09 0.05 0.07 0.10 0.10 0.09 0.09 0.08 0.06 0.06 0.04 0.03 0.03
0.01 0.01 0.01 0.01 0.01 0.01 0.03 0.01 0.01 0.01 0.01 0.01 0.01 0.02 0.01 0.01 0.00 0.00 0.00 0.00 0.01 0.03 0.04 0.05 0.07 0.06 0.03 0.05 0.05 0.07 0.08 0.08 0.06 0.06 0.07 0.07 0.08 0.12 0.13 0.08 0.06 0.03 0.02
0.01 0.02 0.03 0.02 0.02 0.02 0.05 0.02 0.01 0.01 0.04 0.06 0.04 0.04 0.05 0.04 0.05 0.01 0.01 0.02 0.01 0.05 0.09 0.09 0.04 0.05 0.13 0.23 0.26 0.24 0.24 0.27 0.25 0.19 0.16 0.16 0.23 0.28 0.28 0.23 0.19 0.06 0.03
0.04 0.04 0.04 0.04 0.03 0.04 0.05 0.02 0.02 0.01 0.03 0.06 0.05 0.03 0.03 0.03 0.07 0.06 0.02 0.05 0.09 0.16 0.20 0.24 0.35 0.42 0.44 0.33 0.25 0.23 0.19 0.18 0.20 0.26 0.28 0.29 0.24 0.24 0.23 0.20 0.21 0.09 0.04
0.16 0.10 0.06 0.04 0.04 0.03 0.05 0.03 0.03 0.02 0.06 0.09 0.09 0.10 0.09 0.06 0.16 0.10 0.06 0.08 0.13 0.19 0.25 0.15 0.09 0.07 0.06 0.04 0.03 0.02 0.05 0.08 0.13 0.15 0.17 0.18 0.16 0.16 0.17 0.13 0.11 0.13 0.08
0.45 0.35 0.29 0.23 0.17 0.08 0.12 0.11 0.11 0.12 0.15 0.16 0.15 0.14 0.18 0.18 0.21 0.18 0.16 0.15 0.10 0.10 0.08 0.06 0.05 0.05 0.05 0.05 0.07 0.03 0.02 0.03 0.05 0.06 0.05 0.06 0.06 0.05 0.06 0.06 0.06 0.06 0.04

GFSMA_prec_precacc6_105.txt.gz
Total_Precipitation_Accumulation
0.02 0.04 0.05 0.06 0.08 0.11 0.07 0.03 0.01 0.00 0.01 0.07 0.18 0.18 0.04 0.11 0.03 0.01 0.00 0.00 0.00 0.00 0.00 0.00 0.01 0.01 0.01 0.01 0.01 0.00 0.00 0.00 0.00 0.00 0.00 0.00 0.00 0.00 0.00 0.00 0.00 0.00 0.00
0.03 0.02 0.05 0.06 0.06 0.14 0.10 0.03 0.00 0.04 0.03 0.07 0.19 0.15 0.05 0.12 0.03 0.00 0.00 0.00 0.00 0.00 0.00 0.01 0.01 0.01 0.01 0.01 0.00 0.00 0.00 0.00 0.00 0.00 0.00 0.00 0.00 0.00 0.00 0.00 0.00 0.00 0.00
0.00 0.01 0.03 0.04 0.07 0.12 0.09 0.09 0.14 0.06 0.03 0.10 0.20 0.16 0.07 0.08 0.02 0.00 0.00 0.00 0.00 0.00 0.00 0.01 0.02 0.02 0.01 0.00 0.00 0.00 0.00 0.00 0.00 0.00 0.00 0.00 0.00 0.00 0.00 0.00 0.00 0.00 0.00
0.00 0.01 0.02 0.06 0.13 0.13 0.07 0.12 0.09 0.04 0.08 0.17 0.18 0.12 0.09 0.04 0.02 0.00 0.00 0.00 0.00 0.00 0.00 0.01 0.01 0.01 0.01 0.01 0.00 0.00 0.00 0.00 0.00 0.00 0.00 0.00 0.00 0.00 0.00 0.00 0.00 0.00 0.00
0.00 0.01 0.03 0.07 0.13 0.16 0.11 0.08 0.03 0.01 0.07 0.18 0.19 0.16 0.10 0.04 0.00 0.00 0.00 0.00 0.00 0.00 0.00 0.00 0.01 0.01 0.00 0.00 0.00 0.00 0.00 0.00 0.00 0.00 0.00 0.00 0.00 0.00 0.00 0.00 0.00 0.00 0.00
0.00 0.02 0.02 0.06 0.08 0.07 0.10 0.09 0.05 0.02 0.04 0.12 0.19 0.19 0.11 0.03 0.00 0.00 0.00 0.00 0.00 0.00 0.00 0.00 0.00 0.01 0.00 0.00 0.00 0.00 0.00 0.00 0.00 0.00 0.00 0.00 0.00 0.00 0.00 0.00 0.00 0.00 0.00
0.01 0.03 0.02 0.01 0.04 0.03 0.01 0.04 0.06 0.01 0.08 0.13 0.22 0.27 0.12 0.02 0.00 0.00 0.00 0.00 0.00 0.00 0.00 0.00 0.00 0.00 0.00 0.00 0.00 0.00 0.00 0.00 0.00 0.00 0.00 0.00 0.00 0.00 0.00 0.00 0.00 0.00 0.00
0.01 0.03 0.02 0.00 0.04 0.09 0.07 0.05 0.04 0.02 0.08 0.15 0.11 0.11 0.07 0.04 0.01 0.00 0.00 0.00 0.00 0.00 0.00 0.00 0.00 0.00 0.00 0.00 0.00 0.00 0.00 0.00 0.00 0.00 0.00 0.00 0.00 0.00 0.00 0.00 0.00 0.00 0.00
0.01 0.01 0.00 0.03 0.13 0.18 0.28 0.21 0.12 0.04 0.04 0.15 0.09 0.01 0.01 0.01 0.00 0.00 0.00 0.00 0.00 0.00 0.00 0.00 0.00 0.00 0.00 0.00 0.00 0.00 0.00 0.00 0.00 0.00 0.00 0.00 0.00 0.00 0.00 0.00 0.00 0.00 0.00
0.00 0.00 0.00 0.04 0.11 0.16 0.21 0.34 0.34 0.26 0.11 0.11 0.12 0.03 0.00 0.00 0.00 0.01 0.00 0.00 0.00 0.00 0.00 0.00 0.00 0.00 0.00 0.00 0.00 0.00 0.00 0.00 0.00 0.00 0.00 0.00 0.00 0.00 0.00 0.00 0.00 0.00 0.00
0.00 0.00 0.00 0.01 0.08 0.15 0.16 0.22 0.41 0.35 0.27 0.08 0.04 0.02 0.00 0.00 0.00 0.00 0.00 0.00 0.00 0.00 0.00 0.00 0.00 0.00 0.00 0.00 0.00 0.00 0.00 0.00 0.00 0.00 0.00 0.00 0.00 0.00 0.00 0.00 0.00 0.00 0.00
0.00 0.00 0.00 0.01 0.08 0.15 0.26 0.29 0.30 0.31 0.19 0.14 0.06 0.04 0.02 0.01 0.01 0.01 0.00 0.01 0.00 0.00 0.00 0.00 0.00 0.00 0.00 0.00 0.00 0.00 0.00 0.00 0.00 0.00 0.00 0.00 0.00 0.00 0.00 0.00 0.00 0.00 0.00
0.00 0.00 0.00 0.01 0.05 0.15 0.27 0.43 0.39 0.24 0.21 0.16 0.12 0.07 0.04 0.03 0.02 0.01 0.00 0.00 0.01 0.00 0.00 0.00 0.00 0.00 0.00 0.00 0.00 0.00 0.00 0.00 0.00 0.00 0.00 0.00 0.00 0.00 0.00 0.00 0.00 0.00 0.00
0.00 0.00 0.00 0.00 0.03 0.13 0.22 0.33 0.43 0.27 0.18 0.17 0.15 0.13 0.09 0.05 0.02 0.01 0.00 0.00 0.00 0.00 0.01 0.00 0.00 0.00 0.00 0.00 0.00 0.00 0.00 0.00 0.00 0.00 0.00 0.00 0.00 0.00 0.00 0.00 0.00 0.00 0.00
0.00 0.00 0.00 0.00 0.01 0.05 0.11 0.19 0.36 0.35 0.27 0.24 0.21 0.17 0.11 0.05 0.01 0.01 0.02 0.01 0.01 0.01 0.01 0.00 0.00 0.00 0.00 0.00 0.00 0.00 0.00 0.00 0.00 0.00 0.00 0.00 0.00 0.00 0.00 0.00 0.00 0.00 0.00
0.00 0.00 0.00 0.00 0.00 0.01 0.03 0.08 0.17 0.28 0.31 0.23 0.21 0.18 0.10 0.04 0.01 0.00 0.01 0.03 0.04 0.03 0.01 0.00 0.00 0.00 0.02 0.02 0.02 0.01 0.00 0.00 0.00 0.00 0.00 0.00 0.00 0.00 0.00 0.00 0.00 0.00 0.00
0.00 0.00 0.00 0.00 0.00 0.00 0.01 0.02 0.05 0.11 0.12 0.12 0.09 0.09 0.07 0.03 0.02 0.00 0.00 0.00 0.01 0.01 0.01 0.00 0.00 0.00 0.01 0.01 0.01 0.01 0.00 0.00 0.00 0.01 0.01 0.00 0.00 0.00 0.00 0.00 0.00 0.00 0.00
0.00 0.00 0.00 0.00 0.00 0.01 0.00 0.01 0.04 0.06 0.09 0.06 0.05 0.05 0.03 0.01 0.00 0.00 0.01 0.00 0.00 0.00 0.00 0.00 0.00 0.00 0.00 0.00 0.00 0.00 0.00 0.00 0.00 0.00 0.00 0.00 0.00 0.00 0.00 0.00 0.00 0.00 0.00
0.00 0.01 0.01 0.00 0.01 0.01 0.03 0.03 0.02 0.03 0.04 0.07 0.07 0.07 0.06 0.03 0.02 0.01 0.00 0.00 0.00 0.00 0.00 0.00 0.00 0.00 0.00 0.00 0.00 0.00 0.00 0.00 0.00 0.00 0.00 0.00 0.00 0.00 0.01 0.00 0.00 0.00 0.00
0.01 0.00 0.01 0.01 0.00 0.00 0.02 0.04 0.04 0.03 0.01 0.02 0.02 0.02 0.07 0.09 0.04 0.02 0.01 0.00 0.00 0.00 0.00 0.00 0.00 0.00 0.00 0.00 0.01 0.00 0.00 0.00 0.00 0.01 0.02 0.03 0.04 0.04 0.03 0.04 0.05 0.03 0.03
0.03 0.02 0.03 0.03 0.02 0.00 0.02 0.03 0.03 0.05 0.03 0.03 0.04 0.05 0.04 0.02 0.04 0.00 0.00 0.00 0.00 0.00 0.00 0.00 0.01 0.01 0.01 0.02 0.03 0.04 0.07 0.06 0.10 0.13 0.16 0.16 0.16 0.14 0.13 0.14 0.09 0.08 0.07
0.02 0.03 0.03 0.01 0.01 0.01 0.04 0.02 0.02 0.01 0.02 0.05 0.05 0.05 0.04 0.04 0.01 0.00 0.00 0.00 0.00 0.01 0.01 0.02 0.03 0.04 0.03 0.05 0.04 0.06 0.06 0.06 0.06 0.06 0.07 0.08 0.10 0.12 0.13 0.09 0.08 0.07 0.07
0.04 0.05 0.05 0.05 0.03 0.02 0.04 0.02 0.02 0.02 0.05 0.07 0.05 0.06 0.09 0.05 0.03 0.00 0.01 0.01 0.01 0.04 0.04 0.03 0.01 0.01 0.02 0.06 0.11 0.15 0.19 0.23 0.21 0.16 0.11 0.13 0.17 0.22 0.21 0.17 0.13 0.05 0.02
0.05 0.08 0.10 0.06 0.06 0.06 0.06 0.05 0.07 0.03 0.05 0.05 0.04 0.05 0.04 0.03 0.05 0.05 0.03 0.05 0.07 0.08 0.10 0.09 0.12 0.20 0.21 0.21 0.20 0.18 0.15 0.10 0.11 0.14 0.13 0.14 0.11 0.11 0.10 0.07 0.08 0.04 0.01
0.09 0.05 0.07 0.09 0.06 0.04 0.08 0.08 0.06 0.04 0.05 0.06 0.07 0.09 0.10 0.07 0.14 0.09 0.06 0.09 0.13 0.18 0.26 0.23 0.18 0.19 0.18 0.15 0.13 0.11 0.06 0.03 0.03 0.02 0.01 0.02 0.03 0.02 0.02 0.01 0.01 0.03 0.02
0.43 0.35 0.25 0.21 0.19 0.10 0.14 0.14 0.15 0.14 0.18 0.19 0.19 0.19 0.25 0.25 0.32 0.33 0.34 0.36 0.36 0.35 0.30 0.26 0.21 0.15 0.09 0.03 0.02 0.00 0.00 0.00 0.00 0.00 0.00 0.00 0.00 0.00 0.00 0.00 0.00 0.00 0.00

GFSMA_prec_precacc6_108.txt.gz
Total_Precipitation_Accumulation
0.00 0.00 0.00 0.00 0.00 0.00 0.00 0.00 0.00 0.00 0.00 0.00 0.00 0.01 0.01 0.12 0.07 0.07 0.02 0.02 0.00 0.00 0.00 0.00 0.00 0.01 0.01 0.01 0.01 0.00 0.00 0.00 0.00 0.00 0.00 0.00 0.00 0.00 0.00 0.00 0.00 0.00 0.00
0.00 0.00 0.00 0.00 0.00 0.02 0.02 0.02 0.00 0.04 0.03 0.01 0.00 0.01 0.04 0.13 0.10 0.07 0.02 0.00 0.00 0.00 0.00 0.00 0.01 0.01 0.01 0.01 0.01 0.01 0.00 0.00 0.00 0.01 0.00 0.00 0.00 0.00 0.00 0.00 0.00 0.00 0.00
0.00 0.00 0.00 0.00 0.03 0.04 0.05 0.06 0.11 0.05 0.03 0.02 0.03 0.04 0.08 0.12 0.08 0.07 0.03 0.00 0.00 0.00 0.00 0.00 0.01 0.01 0.01 0.01 0.00 0.00 0.00 0.00 0.00 0.00 0.00 0.00 0.00 0.00 0.00 0.00 0.00 0.00 0.00
0.00 0.00 0.00 0.00 0.03 0.06 0.03 0.10 0.09 0.05 0.02 0.02 0.01 0.05 0.09 0.05 0.04 0.06 0.03 0.00 0.00 0.00 0.00 0.00 0.01 0.01 0.01 0.01 0.00 0.00 0.00 0.00 0.00 0.00 0.00 0.00 0.00 0.00 0.00 0.00 0.00 0.00 0.00
0.00 0.00 0.00 0.00 0.02 0.06 0.07 0.07 0.03 0.02 0.02 0.02 0.04 0.10 0.10 0.05 0.04 0.07 0.04 0.00 0.00 0.00 0.00 0.00 0.01 0.01 0.01 0.01 0.00 0.00 0.00 0.00 0.00 0.00 0.00 0.00 0.00 0.00 0.00 0.00 0.00 0.00 0.00
0.00 0.00 0.00 0.00 0.01 0.03 0.08 0.08 0.06 0.03 0.02 0.03 0.08 0.16 0.15 0.08 0.06 0.10 0.05 0.00 0.00 0.00 0.00 0.00 0.01 0.01 0.01 0.01 0.01 0.00 0.00 0.00 0.00 0.00 0.00 0.00 0.00 0.00 0.00 0.00 0.00 0.00 0.00
0.00 0.00 0.00 0.00 0.00 0.01 0.01 0.03 0.07 0.05 0.02 0.02 0.12 0.27 0.17 0.13 0.06 0.09 0.03 0.00 0.00 0.00 0.00 0.00 0.00 0.00 0.00 0.00 0.00 0.00 0.00 0.00 0.00 0.00 0.00 0.00 0.00 0.00 0.00 0.00 0.00 0.00 0.00
0.00 0.00 0.00 0.00 0.00 0.00 0.02 0.03 0.03 0.02 0.01 0.03 0.04 0.15 0.13 0.21 0.08 0.03 0.03 0.00 0.00 0.00 0.00 0.00 0.00 0.00 0.00 0.00 0.00 0.00 0.00 0.00 0.00 0.00 0.00 0.00 0.00 0.00 0.00 0.00 0.00 0.00 0.00
0.00 0.00 0.00 0.00 0.00 0.00 0.01 0.05 0.08 0.03 0.02 0.04 0.05 0.04 0.04 0.09 0.04 0.01 0.02 0.01 0.00 0.00 0.00 0.00 0.00 0.00 0.00 0.00 0.00 0.00 0.00 0.00 0.00 0.00 0.00 0.00 0.00 0.00 0.00 0.00 0.00 0.00 0.00
0.00 0.00 0.00 0.00 0.00 0.00 0.02 0.15 0.24 0.23 0.13 0.12 0.11 0.04 0.00 0.00 0.02 0.03 0.03 0.02 0.00 0.00 0.00 0.00 0.00 0.00 0.00 0.00 0.00 0.00 0.00 0.00 0.00 0.00 0.00 0.00 0.00 0.00 0.00 0.00 0.00 0.00 0.00
0.00 0.00 0.00 0.00 0.00 0.00 0.04 0.11 0.29 0.30 0.31 0.20 0.17 0.07 0.01 0.00 0.01 0.02 0.04 0.02 0.00 0.00 0.00 0.00 0.00 0.00 0.00 0.00 0.00 0.00 0.00 0.00 0.00 0.00 0.00 0.00 0.00 0.00 0.00 0.00 0.00 0.00 0.00
0.00 0.00 0.00 0.00 0.01 0.00 0.07 0.16 0.20 0.31 0.27 0.30 0.24 0.15 0.04 0.01 0.01 0.00 0.00 0.00 0.00 0.00 0.00 0.00 0.00 0.00 0.00 0.00 0.00 0.00 0.00 0.00 0.00 0.00 0.00 0.00 0.00 0.00 0.00 0.00 0.00 0.00 0.00
0.00 0.00 0.00 0.00 0.00 0.01 0.07 0.20 0.27 0.27 0.39 0.35 0.31 0.15 0.04 0.03 0.02 0.01 0.01 0.01 0.00 0.00 0.00 0.00 0.00 0.00 0.00 0.00 0.00 0.00 0.00 0.00 0.00 0.00 0.00 0.00 0.00 0.00 0.00 0.00 0.00 0.00 0.00
0.00 0.00 0.00 0.00 0.00 0.01 0.04 0.15 0.30 0.32 0.31 0.45 0.34 0.28 0.15 0.08 0.05 0.02 0.00 0.00 0.00 0.00 0.00 0.00 0.00 0.00 0.00 0.00 0.00 0.00 0.00 0.00 0.00 0.00 0.00 0.00 0.00 0.00 0.00 0.00 0.00 0.00 0.00
0.00 0.00 0.00 0.00 0.00 0.00 0.01 0.07 0.21 0.28 0.30 0.28 0.31 0.30 0.25 0.13 0.07 0.05 0.01 0.00 0.00 0.00 0.00 0.00 0.00 0.00 0.00 0.00 0.00 0.00 0.00 0.00 0.00 0.00 0.00 0.00 0.00 0.00 0.00 0.00 0.00 0.00 0.00
0.00 0.00 0.00 0.00 0.00 0.00 0.00 0.01 0.09 0.22 0.35 0.33 0.28 0.27 0.24 0.17 0.11 0.07 0.03 0.01 0.00 0.01 0.01 0.00 0.00 0.00 0.01 0.00 0.01 0.00 0.00 0.00 0.00 0.00 0.00 0.00 0.00 0.00 0.00 0.00 0.00 0.00 0.00
0.00 0.00 0.00 0.00 0.00 0.00 0.00 0.01 0.03 0.09 0.16 0.35 0.32 0.27 0.28 0.21 0.16 0.07 0.05 0.03 0.02 0.01 0.00 0.00 0.00 0.00 0.02 0.01 0.02 0.02 0.02 0.02 0.00 0.01 0.01 0.01 0.00 0.00 0.00 0.01 0.00 0.00 0.00
0.00 0.00 0.00 0.00 0.00 0.00 0.00 0.02 0.02 0.03 0.06 0.11 0.23 0.25 0.26 0.26 0.18 0.11 0.07 0.03 0.01 0.00 0.00 0.00 0.00 0.00 0.00 0.00 0.01 0.01 0.00 0.00 0.00 0.00 0.01 0.01 0.02 0.01 0.01 0.00 0.00 0.00 0.00
0.00 0.00 0.01 0.00 0.00 0.01 0.02 0.01 0.02 0.02 0.02 0.10 0.12 0.12 0.15 0.16 0.12 0.08 0.04 0.02 0.01 0.00 0.00 0.00 0.00 0.00 0.00 0.00 0.00 0.00 0.00 0.00 0.00 0.00 0.00 0.00 0.00 0.01 0.01 0.01 0.00 0.00 0.01
0.01 0.00 0.01 0.01 0.01 0.01 0.02 0.03 0.03 0.03 0.01 0.02 0.03 0.04 0.10 0.15 0.11 0.08 0.05 0.02 0.02 0.01 0.00 0.00 0.00 0.00 0.00 0.00 0.00 0.00 0.00 0.00 0.00 0.00 0.01 0.02 0.04 0.04 0.04 0.07 0.12 0.13 0.14
0.03 0.01 0.01 0.00 0.00 0.00 0.02 0.04 0.04 0.05 0.05 0.03 0.05 0.07 0.08 0.09 0.16 0.16 0.11 0.06 0.05 0.05 0.02 0.01 0.00 0.00 0.00 0.00 0.00 0.01 0.02 0.03 0.07 0.08 0.15 0.20 0.23 0.24 0.30 0.24 0.16 0.10 0.05
0.04 0.04 0.04 0.01 0.01 0.02 0.07 0.05 0.03 0.02 0.04 0.08 0.10 0.07 0.11 0.19 0.16 0.13 0.08 0.04 0.03 0.05 0.03 0.01 0.00 0.00 0.00 0.02 0.01 0.02 0.02 0.02 0.03 0.02 0.04 0.04 0.04 0.03 0.02 0.03 0.04 0.05 0.06
0.07 0.06 0.06 0.07 0.04 0.02 0.04 0.04 0.06 0.03 0.04 0.04 0.07 0.11 0.13 0.09 0.09 0.03 0.02 0.01 0.01 0.01 0.01 0.00 0.00 0.00 0.00 0.01 0.02 0.05 0.08 0.10 0.10 0.06 0.05 0.09 0.11 0.11 0.10 0.08 0.08 0.03 0.01
0.07 0.08 0.09 0.07 0.07 0.08 0.08 0.08 0.11 0.06 0.09 0.06 0.05 0.05 0.05 0.06 0.08 0.07 0.03 0.03 0.03 0.03 0.04 0.03 0.03 0.04 0.06 0.08 0.11 0.12 0.10 0.10 0.12 0.12 0.13 0.16 0.14 0.11 0.06 0.03 0.03 0.01 0.00
0.18 0.08 0.06 0.08 0.05 0.04 0.10 0.11 0.09 0.05 0.08 0.06 0.04 0.05 0.06 0.04 0.09 0.08 0.05 0.08 0.11 0.13 0.19 0.19 0.17 0.18 0.18 0.17 0.15 0.14 0.12 0.12 0.12 0.08 0.04 0.02 0.02 0.01 0.01 0.00 0.00 0.00 0.00
0.44 0.35 0.18 0.11 0.13 0.07 0.11 0.10 0.12 0.09 0.10 0.09 0.07 0.09 0.15 0.13 0.22 0.22 0.22 0.25 0.31 0.30 0.27 0.26 0.23 0.18 0.15 0.11 0.08 0.06 0.06 0.07 0.06 0.02 0.00 0.00 0.00 0.00 0.00 0.00 0.00 0.00 0.00

GFSMA_prec_precacc6_114.txt.gz
Total_Precipitation_Accumulation
0.00 0.00 0.00 0.00 0.00 0.00 0.00 0.00 0.00 0.00 0.00 0.00 0.00 0.00 0.00 0.01 0.06 0.17 0.23 0.31 0.32 0.15 0.05 0.01 0.00 0.00 0.00 0.01 0.01 0.01 0.01 0.01 0.01 0.01 0.00 0.01 0.01 0.00 0.00 0.01 0.01 0.00 0.00
0.00 0.00 0.00 0.00 0.00 0.00 0.00 0.00 0.00 0.00 0.00 0.00 0.00 0.00 0.00 0.00 0.07 0.16 0.20 0.38 0.41 0.31 0.17 0.03 0.00 0.01 0.00 0.01 0.01 0.00 0.01 0.01 0.01 0.01 0.01 0.01 0.00 0.00 0.01 0.01 0.00 0.00 0.00
0.00 0.00 0.00 0.00 0.00 0.00 0.00 0.00 0.00 0.00 0.00 0.00 0.00 0.00 0.00 0.00 0.04 0.12 0.16 0.28 0.35 0.29 0.18 0.04 0.00 0.01 0.01 0.01 0.01 0.00 0.01 0.01 0.02 0.01 0.01 0.01 0.00 0.00 0.01 0.00 0.00 0.00 0.00
0.00 0.00 0.00 0.00 0.00 0.00 0.00 0.00 0.00 0.00 0.00 0.00 0.00 0.00 0.00 0.00 0.01 0.08 0.14 0.19 0.25 0.22 0.12 0.02 0.00 0.01 0.01 0.02 0.01 0.01 0.01 0.01 0.02 0.02 0.01 0.01 0.00 0.01 0.01 0.00 0.00 0.00 0.00
0.00 0.00 0.00 0.00 0.00 0.00 0.00 0.00 0.00 0.00 0.00 0.00 0.03 0.02 0.00 0.00 0.00 0.04 0.12 0.17 0.22 0.22 0.09 0.01 0.00 0.01 0.01 0.03 0.01 0.01 0.02 0.01 0.01 0.02 0.01 0.01 0.00 0.01 0.01 0.00 0.00 0.00 0.00
0.00 0.00 0.00 0.00 0.00 0.00 0.00 0.00 0.00 0.00 0.00 0.01 0.05 0.04 0.01 0.00 0.00 0.04 0.15 0.20 0.21 0.23 0.13 0.00 0.00 0.01 0.02 0.02 0.02 0.01 0.02 0.01 0.01 0.01 0.01 0.01 0.01 0.01 0.01 0.00 0.00 0.00 0.00
0.00 0.00 0.00 0.00 0.00 0.00 0.00 0.00 0.00 0.01 0.01 0.02 0.08 0.06 0.03 0.01 0.01 0.04 0.16 0.18 0.17 0.16 0.09 0.00 0.00 0.00 0.01 0.01 0.02 0.01 0.02 0.02 0.01 0.01 0.01 0.01 0.01 0.01 0.01 0.00 0.00 0.00 0.00
0.00 0.00 0.00 0.00 0.00 0.00 0.00 0.00 0.01 0.01 0.01 0.03 0.06 0.07 0.08 0.15 0.06 0.04 0.10 0.14 0.11 0.11 0.08 0.01 0.00 0.00 0.01 0.01 0.00 0.01 0.01 0.02 0.02 0.01 0.01 0.01 0.00 0.01 0.01 0.01 0.00 0.00 0.00
0.00 0.00 0.00 0.00 0.00 0.00 0.00 0.01 0.01 0.01 0.02 0.02 0.04 0.04 0.03 0.04 0.04 0.03 0.03 0.08 0.10 0.07 0.05 0.01 0.00 0.00 0.00 0.00 0.00 0.00 0.00 0.00 0.01 0.02 0.01 0.01 0.00 0.00 0.00 0.00 0.00 0.00 0.00
0.00 0.00 0.00 0.00 0.00 0.00 0.01 0.01 0.01 0.02 0.03 0.02 0.03 0.03 0.04 0.02 0.01 0.03 0.03 0.06 0.11 0.10 0.04 0.02 0.00 0.00 0.00 0.00 0.00 0.00 0.00 0.00 0.00 0.01 0.01 0.01 0.00 0.00 0.00 0.00 0.00 0.00 0.00
0.00 0.00 0.00 0.00 0.00 0.00 0.00 0.01 0.01 0.03 0.04 0.03 0.02 0.02 0.04 0.03 0.02 0.02 0.06 0.10 0.12 0.09 0.06 0.02 0.00 0.00 0.00 0.00 0.00 0.00 0.00 0.00 0.00 0.00 0.00 0.00 0.01 0.01 0.00 0.00 0.00 0.00 0.00
0.00 0.00 0.00 0.01 0.00 0.00 0.00 0.01 0.01 0.02 0.04 0.04 0.05 0.09 0.10 0.05 0.02 0.02 0.02 0.04 0.07 0.08 0.08 0.04 0.01 0.00 0.00 0.00 0.00 0.00 0.00 0.00 0.00 0.00 0.00 0.00 0.00 0.00 0.00 0.00 0.00 0.00 0.00
0.00 0.00 0.00 0.00 0.01 0.01 0.01 0.01 0.01 0.02 0.04 0.05 0.07 0.13 0.14 0.11 0.06 0.05 0.05 0.04 0.07 0.09 0.10 0.07 0.02 0.00 0.00 0.00 0.00 0.00 0.00 0.00 0.00 0.00 0.00 0.00 0.00 0.00 0.00 0.00 0.00 0.00 0.00
0.00 0.00 0.00 0.00 0.00 0.00 0.01 0.01 0.02 0.02 0.03 0.10 0.21 0.27 0.26 0.17 0.14 0.15 0.10 0.06 0.08 0.07 0.05 0.03 0.02 0.01 0.00 0.00 0.00 0.00 0.00 0.00 0.00 0.00 0.00 0.00 0.00 0.00 0.00 0.00 0.00 0.00 0.00
0.04 0.04 0.02 0.00 0.00 0.00 0.01 0.01 0.02 0.02 0.02 0.07 0.29 0.44 0.42 0.33 0.22 0.17 0.12 0.06 0.06 0.07 0.03 0.01 0.01 0.00 0.00 0.00 0.00 0.00 0.00 0.00 0.00 0.00 0.00 0.00 0.00 0.00 0.00 0.00 0.00 0.00 0.00
0.07 0.05 0.03 0.02 0.00 0.00 0.01 0.01 0.01 0.02 0.03 0.03 0.10 0.16 0.21 0.24 0.23 0.20 0.18 0.13 0.10 0.06 0.04 0.02 0.02 0.01 0.00 0.00 0.00 0.00 0.00 0.00 0.00 0.00 0.00 0.00 0.00 0.00 0.00 0.00 0.00 0.00 0.00
0.06 0.04 0.04 0.02 0.01 0.01 0.00 0.01 0.01 0.02 0.02 0.02 0.07 0.26 0.26 0.15 0.16 0.19 0.20 0.16 0.10 0.08 0.06 0.04 0.02 0.02 0.01 0.01 0.00 0.00 0.01 0.01 0.01 0.01 0.01 0.01 0.01 0.01 0.00 0.00 0.00 0.00 0.00
0.10 0.10 0.08 0.03 0.02 0.03 0.03 0.01 0.01 0.01 0.01 0.02 0.03 0.13 0.36 0.39 0.33 0.28 0.26 0.21 0.15 0.14 0.15 0.12 0.07 0.03 0.01 0.01 0.01 0.01 0.01 0.01 0.02 0.04 0.04 0.03 0.02 0.02 0.01 0.00 0.00 0.00 0.00
0.09 0.09 0.07 0.05 0.04 0.04 0.05 0.02 0.01 0.01 0.00 0.01 0.04 0.09 0.20 0.33 0.51 0.45 0.35 0.28 0.24 0.22 0.21 0.19 0.12 0.06 0.02 0.00 0.00 0.00 0.01 0.02 0.03 0.03 0.01 0.00 0.00 0.00 0.00 0.00 0.00 0.00 0.00
0.08 0.07 0.08 0.08 0.07 0.03 0.01 0.01 0.00 0.01 0.01 0.00 0.04 0.15 0.14 0.16 0.28 0.36 0.38 0.32 0.30 0.28 0.21 0.18 0.16 0.10 0.05 0.03 0.03 0.02 0.02 0.03 0.03 0.01 0.01 0.00 0.00 0.00 0.00 0.00 0.01 0.02 0.03
0.07 0.07 0.09 0.08 0.08 0.09 0.08 0.03 0.01 0.00 0.01 0.00 0.00 0.03 0.11 0.15 0.15 0.19 0.33 0.35 0.29 0.25 0.23 0.18 0.14 0.10 0.05 0.04 0.03 0.01 0.03 0.06 0.08 0.05 0.02 0.01 0.02 0.02 0.03 0.07 0.07 0.08 0.10
0.21 0.19 0.13 0.15 0.15 0.12 0.17 0.13 0.03 0.01 0.02 0.03 0.03 0.02 0.02 0.13 0.22 0.27 0.30 0.33 0.38 0.38 0.30 0.21 0.16 0.14 0.09 0.08 0.07 0.07 0.04 0.04 0.04 0.02 0.02 0.05 0.07 0.05 0.03 0.02 0.04 0.02 0.03
0.42 0.39 0.41 0.37 0.25 0.15 0.16 0.18 0.09 0.02 0.04 0.05 0.05 0.07 0.08 0.07 0.10 0.16 0.34 0.33 0.29 0.34 0.33 0.25 0.24 0.16 0.13 0.11 0.12 0.11 0.08 0.05 0.02 0.02 0.05 0.07 0.07 0.06 0.06 0.07 0.07 0.03 0.02
0.66 0.48 0.46 0.44 0.44 0.34 0.19 0.16 0.09 0.02 0.03 0.05 0.05 0.08 0.08 0.07 0.11 0.12 0.11 0.18 0.24 0.24 0.24 0.21 0.13 0.08 0.06 0.06 0.08 0.07 0.06 0.07 0.09 0.07 0.08 0.10 0.12 0.13 0.14 0.13 0.15 0.07 0.03
0.50 0.67 0.56 0.47 0.40 0.28 0.23 0.16 0.07 0.02 0.03 0.04 0.05 0.06 0.09 0.08 0.12 0.12 0.08 0.12 0.18 0.17 0.20 0.24 0.24 0.21 0.14 0.09 0.06 0.03 0.03 0.03 0.05 0.08 0.13 0.16 0.16 0.14 0.12 0.09 0.09 0.09 0.03
0.23 0.36 0.51 0.55 0.50 0.35 0.33 0.31 0.25 0.14 0.07 0.03 0.02 0.05 0.14 0.11 0.15 0.09 0.05 0.04 0.08 0.12 0.13 0.11 0.12 0.12 0.09 0.07 0.08 0.06 0.04 0.06 0.10 0.15 0.17 0.18 0.19 0.20 0.19 0.14 0.07 0.03 0.01

GFSMA_prec_precacc6_117.txt.gz
Total_Precipitation_Accumulation
0.00 0.00 0.00 0.00 0.00 0.00 0.00 0.00 0.00 0.00 0.00 0.00 0.00 0.00 0.00 0.01 0.05 0.09 0.09 0.29 0.37 0.40 0.27 0.04 0.01 0.00 0.00 0.00 0.01 0.01 0.01 0.01 0.01 0.01 0.01 0.01 0.01 0.01 0.00 0.01 0.00 0.00 0.00
0.00 0.00 0.00 0.00 0.00 0.00 0.00 0.00 0.00 0.00 0.00 0.00 0.00 0.00 0.00 0.00 0.03 0.16 0.13 0.34 0.56 0.65 0.66 0.26 0.02 0.01 0.00 0.01 0.01 0.01 0.01 0.01 0.01 0.01 0.01 0.01 0.01 0.00 0.01 0.01 0.00 0.00 0.00
0.00 0.00 0.00 0.00 0.00 0.00 0.00 0.00 0.00 0.00 0.00 0.00 0.00 0.00 0.00 0.00 0.00 0.06 0.05 0.13 0.33 0.40 0.55 0.54 0.19 0.02 0.01 0.01 0.01 0.00 0.01 0.02 0.02 0.01 0.01 0.01 0.01 0.00 0.01 0.01 0.01 0.00 0.00
0.00 0.00 0.00 0.00 0.00 0.00 0.00 0.00 0.00 0.00 0.00 0.00 0.00 0.00 0.00 0.00 0.00 0.01 0.04 0.05 0.22 0.31 0.36 0.28 0.12 0.04 0.01 0.02 0.01 0.00 0.01 0.02 0.02 0.02 0.01 0.01 0.00 0.00 0.01 0.01 0.00 0.00 0.00
0.00 0.00 0.00 0.00 0.00 0.00 0.00 0.00 0.00 0.00 0.00 0.00 0.00 0.00 0.00 0.00 0.00 0.00 0.01 0.04 0.16 0.26 0.21 0.18 0.07 0.01 0.01 0.02 0.02 0.01 0.01 0.02 0.02 0.02 0.01 0.01 0.00 0.01 0.01 0.01 0.00 0.00 0.00
0.00 0.00 0.00 0.00 0.00 0.00 0.00 0.00 0.00 0.00 0.00 0.00 0.00 0.01 0.00 0.00 0.00 0.00 0.01 0.04 0.12 0.24 0.25 0.13 0.05 0.01 0.01 0.02 0.03 0.01 0.01 0.01 0.01 0.02 0.01 0.01 0.00 0.01 0.01 0.01 0.00 0.00 0.00
0.00 0.00 0.00 0.00 0.00 0.00 0.00 0.00 0.00 0.00 0.00 0.00 0.01 0.01 0.02 0.01 0.00 0.00 0.00 0.03 0.09 0.16 0.21 0.20 0.05 0.00 0.01 0.01 0.02 0.02 0.02 0.02 0.01 0.01 0.02 0.01 0.01 0.01 0.01 0.01 0.00 0.00 0.00
0.00 0.00 0.00 0.00 0.00 0.00 0.00 0.00 0.00 0.00 0.00 0.01 0.02 0.03 0.03 0.03 0.03 0.01 0.01 0.01 0.06 0.12 0.11 0.12 0.06 0.00 0.00 0.01 0.01 0.01 0.02 0.03 0.02 0.01 0.02 0.03 0.01 0.01 0.01 0.01 0.01 0.00 0.00
0.00 0.00 0.00 0.00 0.00 0.00 0.00 0.00 0.00 0.00 0.01 0.01 0.02 0.02 0.03 0.02 0.01 0.01 0.01 0.01 0.04 0.06 0.07 0.06 0.07 0.02 0.00 0.00 0.00 0.00 0.01 0.02 0.03 0.03 0.02 0.02 0.01 0.01 0.01 0.01 0.01 0.01 0.00
0.00 0.00 0.00 0.00 0.00 0.00 0.00 0.00 0.01 0.01 0.02 0.02 0.01 0.02 0.02 0.01 0.01 0.00 0.01 0.01 0.03 0.06 0.04 0.04 0.05 0.02 0.00 0.00 0.00 0.00 0.00 0.00 0.01 0.02 0.02 0.01 0.01 0.01 0.01 0.01 0.01 0.00 0.00
0.00 0.00 0.00 0.00 0.00 0.00 0.00 0.00 0.00 0.01 0.02 0.02 0.01 0.01 0.03 0.02 0.02 0.01 0.03 0.03 0.04 0.04 0.06 0.04 0.04 0.03 0.01 0.00 0.00 0.00 0.00 0.00 0.00 0.00 0.01 0.02 0.01 0.01 0.00 0.00 0.00 0.00 0.00
0.00 0.00 0.00 0.00 0.00 0.00 0.00 0.00 0.01 0.01 0.02 0.02 0.02 0.03 0.03 0.04 0.02 0.03 0.02 0.01 0.02 0.03 0.07 0.06 0.04 0.01 0.00 0.00 0.00 0.00 0.00 0.00 0.00 0.00 0.00 0.00 0.01 0.01 0.01 0.01 0.01 0.00 0.00
0.00 0.00 0.00 0.00 0.00 0.01 0.01 0.01 0.01 0.01 0.02 0.02 0.02 0.02 0.03 0.03 0.03 0.04 0.08 0.11 0.11 0.11 0.13 0.10 0.05 0.01 0.00 0.00 0.00 0.00 0.00 0.00 0.00 0.00 0.00 0.00 0.00 0.00 0.00 0.00 0.00 0.01 0.01
0.01 0.01 0.00 0.01 0.01 0.01 0.01 0.01 0.02 0.02 0.02 0.02 0.02 0.03 0.05 0.08 0.10 0.14 0.18 0.20 0.23 0.13 0.05 0.04 0.04 0.03 0.01 0.00 0.00 0.00 0.00 0.00 0.00 0.00 0.00 0.00 0.00 0.00 0.00 0.00 0.00 0.00 0.00
0.09 0.10 0.09 0.02 0.01 0.01 0.01 0.01 0.02 0.02 0.02 0.02 0.04 0.08 0.16 0.16 0.14 0.14 0.16 0.17 0.19 0.18 0.05 0.01 0.02 0.02 0.01 0.01 0.00 0.00 0.00 0.00 0.00 0.00 0.00 0.00 0.00 0.00 0.00 0.00 0.00 0.00 0.00
0.15 0.17 0.16 0.08 0.03 0.04 0.02 0.01 0.01 0.01 0.01 0.02 0.01 0.02 0.04 0.09 0.14 0.16 0.16 0.17 0.19 0.19 0.14 0.03 0.04 0.03 0.02 0.01 0.00 0.00 0.00 0.00 0.00 0.00 0.00 0.00 0.00 0.00 0.00 0.00 0.00 0.00 0.00
0.13 0.11 0.17 0.13 0.09 0.06 0.02 0.02 0.02 0.01 0.01 0.01 0.01 0.02 0.06 0.05 0.08 0.07 0.08 0.10 0.11 0.14 0.15 0.09 0.05 0.05 0.04 0.02 0.01 0.00 0.00 0.00 0.00 0.00 0.00 0.00 0.00 0.00 0.00 0.00 0.00 0.00 0.00
0.06 0.12 0.15 0.13 0.10 0.08 0.07 0.04 0.02 0.01 0.01 0.00 0.00 0.02 0.10 0.13 0.14 0.11 0.09 0.09 0.09 0.10 0.14 0.15 0.13 0.11 0.05 0.02 0.01 0.00 0.00 0.01 0.01 0.00 0.00 0.00 0.00 0.00 0.00 0.00 0.00 0.00 0.00
0.05 0.06 0.08 0.07 0.05 0.08 0.09 0.05 0.02 0.01 0.00 0.01 0.00 0.01 0.03 0.07 0.13 0.16 0.16 0.16 0.14 0.13 0.17 0.21 0.17 0.13 0.10 0.04 0.02 0.01 0.01 0.02 0.03 0.02 0.00 0.00 0.00 0.00 0.00 0.00 0.00 0.00 0.00
0.08 0.08 0.09 0.10 0.08 0.07 0.06 0.06 0.04 0.02 0.02 0.02 0.01 0.03 0.06 0.05 0.06 0.07 0.14 0.22 0.24 0.23 0.21 0.22 0.22 0.16 0.10 0.07 0.07 0.03 0.03 0.04 0.04 0.02 0.02 0.01 0.00 0.00 0.00 0.00 0.00 0.00 0.00
0.06 0.08 0.09 0.11 0.12 0.16 0.17 0.14 0.11 0.10 0.05 0.01 0.00 0.01 0.06 0.09 0.09 0.07 0.13 0.20 0.23 0.22 0.22 0.22 0.25 0.22 0.13 0.07 0.05 0.04 0.10 0.09 0.10 0.06 0.04 0.03 0.01 0.01 0.01 0.00 0.00 0.01 0.02
0.02 0.09 0.12 0.15 0.16 0.14 0.27 0.26 0.22 0.20 0.15 0.08 0.01 0.00 0.01 0.08 0.19 0.20 0.15 0.16 0.22 0.26 0.22 0.18 0.18 0.20 0.16 0.13 0.11 0.14 0.14 0.14 0.09 0.04 0.03 0.04 0.04 0.04 0.03 0.03 0.04 0.03 0.03
0.11 0.18 0.33 0.36 0.24 0.18 0.29 0.30 0.27 0.20 0.19 0.15 0.05 0.03 0.02 0.05 0.06 0.09 0.24 0.28 0.23 0.30 0.34 0.28 0.27 0.21 0.19 0.17 0.22 0.24 0.20 0.14 0.06 0.03 0.05 0.10 0.10 0.09 0.08 0.09 0.09 0.04 0.02
0.08 0.21 0.36 0.45 0.50 0.47 0.42 0.41 0.47 0.42 0.36 0.23 0.09 0.05 0.05 0.05 0.09 0.10 0.10 0.13 0.19 0.23 0.29 0.28 0.25 0.20 0.13 0.14 0.21 0.18 0.17 0.22 0.22 0.15 0.11 0.12 0.09 0.08 0.08 0.07 0.11 0.06 0.03
0.10 0.28 0.37 0.41 0.43 0.37 0.34 0.36 0.38 0.33 0.31 0.27 0.16 0.10 0.08 0.04 0.11 0.13 0.08 0.10 0.17 0.19 0.30 0.39 0.38 0.36 0.33 0.29 0.27 0.27 0.29 0.26 0.19 0.12 0.11 0.11 0.11 0.11 0.11 0.10 0.11 0.12 0.05
0.04 0.11 0.21 0.28 0.34 0.33 0.33 0.37 0.41 0.36 0.31 0.27 0.21 0.12 0.12 0.09 0.16 0.11 0.06 0.05 0.09 0.13 0.12 0.14 0.17 0.19 0.22 0.24 0.26 0.22 0.24 0.28 0.27 0.24 0.18 0.14 0.13 0.14 0.16 0.16 0.11 0.08 0.04